sat.trackr.live / text

‹ back to catalog

DMC3-FM2

NORAD 40716 · 2015-032B

PAYLOAD ACTIVE UNKNOWN

§ Identity

Operator
Country
UK
Launch date
2015-07-10
Launch site
SRILR
Launch vehicle
Mass (kg)
RCS (m²)
1.51

Purposes: earth_obs

External: N2YO · Heavens-Above · Gunter

§ Orbital elements

Epoch: 2026-09-20T04:26:16.302624Z

Period
96.92 min
Inclination
97.6361°
Eccentricity
0.0007535
Mean motion
14.85831082 rev/d
Perigee alt
605.7 km
Apogee alt
616.2 km
Semi-major
6,989.1 km
B*
7.3256e-5
RAAN
126.2085°
Arg perigee
101.1617°
Mean anomaly
259.0446°
Rev number
60,401

§ Raw data

DMC3-FM21 40716U 15032B   26263.18491091  .00000586  00000+0  73256-4 0  99962 40716  97.6361 126.2085 0007535 101.1617 259.0446 14.85831082604014

JSON: /api/v1/satellites/40716 · /tle

For live sub-satellite position, see the globe view (requires WebGL).

§ Visibility from observer

Set your observer location to see the next 7 days of passes ≥ 10°. The values pass through the URL so the page stays shareable.

No JS? Fill the form by hand. The geolocation button needs JavaScript.

§ Radio — SatNOGS DB

ModeDescriptionDownlinkUplink
FM Mode X (375MHz) 8.213 GHz
BPSK Telemetry 2.233 GHz

2 transmitters · refreshed weekly from db.satnogs.org